SCP
1 1 1 1 1 1 1 1 1 1 1 1 1 1 1 1 1 1 1 1 1 1 1 1 1 1 1 1 1 1 1 1 1 1 1 1 0 0 0 0 0 0 0
1 1 1 1 1 1 1 1 1 1 1 1 1 1 1 1 1 1 1 1 1 1 1 2 2 1 1 1 1 1 1 1 1 1 1 1 1 0 0 0 0 0 0
1 1 1 1 1 1 1 1 1 1 1 1 1 1 1 1 1 1 1 1 1 1 1 2 2 2 1 1 1 1 1 1 1 1 1 1 1 1 0 0 0 0 0
1 1 1 1 1 1 0 0 0 0 0 0 0 0 0 0 0 0 0 1 1 1 2 2 2 2 1 1 1 1 1 1 1 1 1 1 1 1 1 0 0 0 0
1 1 1 0 1 0 0 0 0 0 0 0 0 0 0 0 0 0 0 1 1 1 1 2 2 2 1 1 1 1 1 1 1 1 1 1 1 1 1 1 1 1 1
1 0 0 1 0 0 0 0 0 0 0 0 0 0 0 0 0 0 0 1 1 1 1 1 1 1 1 1 1 1 1 1 1 1 1 1 1 1 1 1 1 1 1
0 0 0 0 0 0 0 0 0 0 0 0 0 0 0 0 0 0 0 1 1 1 1 1 1 1 1 1 1 1 1 1 1 1 1 1 1 1 1 1 1 1 1
0 0 0 0 0 0 0 0 0 0 0 0 0 0 0 0 0 0 0 1 1 1 1 1 1 1 1 1 1 2 2 2 2 2 2 2 2 2 2 1 1 1 1
0 0 0 0 0 0 0 0 0 0 0 0 0 0 0 0 0 0 0 1 1 1 1 1 1 1 1 1 2 2 2 2 2 2 2 2 2 2 2 2 2 1 1
0 0 0 0 0 0 0 0 0 0 0 0 0 0 0 0 0 0 0 0 0 0 1 1 1 1 1 1 1 2 2 2 2 2 2 2 2 2 2 2 2 2 1
0 0 0 0 0 0 0 0 0 0 0 0 0 0 0 0 0 0 0 0 0 0 0 0 1 1 1 1 1 1 1 1 1 2 2 2 2 2 2 2 2 2 2
0 0 0 0 0 0 0 0 0 0 0 0 0 0 0 0 0 0 0 0 0 0 0 0 0 0 0 1 1 1 1 1 1 1 1 2 2 2 2 2 2 2 2
0 0 0 0 0 0 0 0 0 0 0 0 0 0 0 0 0 0 0 0 0 0 0 0 0 0 0 1 1 1 1 1 1 1 1 2 2 2 2 2 2 2 2
0 0 0 0 0 0 0 0 0 0 0 0 0 0 0 0 0 0 0 0 0 0 0 0 0 0 0 0 0 1 1 1 1 1 1 1 1 1 1 1 1 2 2
0 0 0 0 0 0 0 0 0 0 0 0 0 0 0 0 0 0 0 0 0 0 0 0 0 0 0 0 0 1 1 1 1 1 1 1 1 1 1 1 1 1 1
0 0 0 0 0 0 0 0 0 0 0 0 0 0 0 0 0 0 0 0 0 0 0 0 0 0 0 0 0 1 1 1 1 0 0 0 1 1 1 1 1 1 1
0 0 0 0 0 0 0 0 0 0 0 0 0 0 0 0 0 0 0 0 0 0 0 0 0 0 0 0 0 1 1 1 1 1 0 0 0 0 1 1 1 1 1
0 0 0 0 0 0 0 0 0 0 0 0 0 0 0 0 0 0 0 0 0 0 0 0 0 0 0 0 0 0 1 1 1 1 0 0 0 0 0 0 0 0 0
0 0 0 0 0 0 0 0 0 0 0 0 0 0 0 0 0 0 0 0 0 0 0 0 0 0 0 0 0 0 1 1 1 1 1 0 0 0 0 0 0 0 0
0 0 0 0 0 0 0 0 0 0 0 0 0 0 0 0 0 0 0 0 0 0 0 0 0 0 0 0 0 0 0 1 1 1 1 1 1 0 0 0 0 0 0
0 0 0 0 0 0 0 0 0 0 0 0 0 0 0 0 0 0 0 0 0 0 0 0 0 0 0 0 0 0 0 0 1 1 2 2 1 1 1 0 0 0 0
0 0 0 0 0 0 0 0 0 0 0 0 0 0 0 0 0 0 0 0 0 0 0 0 0 0 0 0 0 0 0 0 1 1 2 2 2 1 1 1 0 0 0
0 0 0 0 0 0 0 0 0 0 0 0 0 0 0 0 0 0 0 0 0 0 0 0 0 0 0 0 0 0 0 0 1 1 2 2 2 1 1 1 0 0 0
0 0 0 0 0 0 0 0 0 0 0 0 0 0 0 0 0 0 0 0 0 0 0 0 0 0 0 0 0 0 0 0 1 1 2 2 2 1 1 1 0 0 0
0 0 0 0 0 0 0 0 0 0 0 0 0 0 0 0 0 0 0 0 0 0 0 0 0 0 0 0 0 0 0 0 0 1 1 2 2 1 1 1 0 0 0
0 0 0 0 0 0 0 0 0 0 0 0 0 0 0 0 0 0 0 0 0 0 0 0 0 0 0 0 0 0 0 0 0 0 1 1 2 1 1 1 1 0 0
Wind_Speed
2 1 1 1 0 0 1 1 1 1 1 1 2 2 3 3 3 3 2 6 8 10 13 14 15 16 16 15 15 14 14 14 13 12 12 12 13 12 12 12 11 11 10
2 2 1 1 1 0 1 1 1 1 1 1 1 2 2 2 3 3 3 4 7 9 12 14 15 16 16 16 16 15 15 15 13 13 12 12 12 12 12 12 12 11 10
2 2 1 1 0 0 1 1 1 1 1 1 2 2 2 2 2 3 3 3 4 8 11 13 14 15 16 17 17 17 16 15 14 14 13 13 13 13 12 12 12 12 11
3 2 2 1 1 1 1 1 1 1 0 1 1 2 2 2 4 4 3 4 3 4 8 13 13 14 16 17 17 18 17 16 15 15 15 14 14 14 13 13 13 12 12
3 3 2 1 1 2 1 1 1 1 0 1 2 2 2 2 3 4 4 5 4 5 4 8 12 13 15 17 17 18 17 17 16 16 17 17 16 15 14 14 13 13 13
2 3 2 2 2 2 2 1 2 1 0 1 1 2 2 2 2 3 4 3 3 5 5 6 5 7 12 14 16 18 19 19 18 18 18 18 18 16 15 15 14 14 14
2 3 2 2 2 2 1 1 1 2 2 1 1 2 2 2 2 2 2 2 3 3 4 5 4 4 5 11 14 17 19 20 20 20 19 18 19 17 17 17 16 15 15
2 2 3 2 1 2 2 2 2 1 1 2 1 1 2 3 2 1 1 1 2 2 3 4 4 5 5 4 7 15 19 20 20 21 20 19 19 18 18 18 17 16 16
1 2 2 2 1 1 1 1 1 2 1 1 1 1 1 1 2 2 2 1 2 1 2 3 4 4 5 5 5 9 14 16 19 21 21 21 20 19 19 19 19 18 18
2 2 2 2 2 1 1 0 1 1 1 0 1 0 1 1 1 2 2 2 3 2 3 3 3 3 4 4 6 8 10 11 15 19 20 20 21 21 20 21 21 21 20
3 3 3 2 2 1 1 1 1 1 1 1 1 0 0 0 1 1 3 3 3 2 3 3 2 2 3 3 4 6 9 10 11 14 17 19 20 20 21 22 23 23 23
2 3 2 2 2 1 0 0 0 0 0 1 1 1 1 1 1 2 3 3 3 3 3 3 2 2 3 3 5 7 7 9 10 12 13 15 18 19 20 22 24 24 24
1 1 1 1 1 0 0 0 0 0 1 1 1 1 2 2 1 2 2 2 2 3 3 2 2 3 3 2 4 7 7 8 9 10 11 13 15 17 19 21 23 24 24
1 1 1 1 1 1 0 0 0 1 1 1 2 2 2 2 2 2 2 2 2 2 2 3 2 3 3 3 4 6 6 8 9 10 11 12 13 14 16 18 21 22 22
1 1 1 1 1 1 1 0 1 1 1 2 2 2 2 2 2 3 3 3 3 3 3 3 3 3 3 3 5 4 5 7 9 10 11 12 12 12 13 15 17 18 19
1 1 1 1 1 1 1 1 1 2 2 2 2 2 2 2 2 2 3 3 4 4 4 3 3 3 4 5 5 5 6 8 8 9 10 11 12 12 13 14 16 17 18
2 2 2 2 2 2 2 2 3 3 3 3 3 3 4 3 3 2 2 2 3 4 5 5 3 3 4 6 5 5 5 5 5 9 10 11 11 12 12 13 14 16 18
2 2 2 2 3 3 2 3 4 3 3 4 4 4 5 3 4 3 3 4 4 4 5 6 4 3 5 5 5 6 5 4 5 7 9 10 11 12 12 13 14 15 16
3 2 2 3 3 3 3 4 4 4 4 5 5 5 6 5 5 4 4 5 4 4 5 5 5 3 4 4 4 4 5 4 5 5 7 9 10 11 11 12 13 14 15
3 3 3 3 4 4 4 4 4 5 5 5 5 6 6 6 7 6 5 6 5 5 4 5 5 5 4 4 3 3 4 3 4 5 5 6 7 9 11 12 13 13 14
4 3 3 4 4 4 4 5 5 5 5 6 6 6 6 8 10 8 6 6 5 5 5 5 5 4 4 3 4 3 4 5 5 4 4 4 4 5 6 9 12 13 14
4 3 4 5 5 5 6 8 6 5 6 6 7 7 7 8 9 9 10 9 8 7 7 6 5 6 7 5 4 4 4 4 4 2 3 4 3 5 5 6 8 11 13
4 4 5 5 6 7 10 10 9 6 6 7 7 7 6 6 7 7 8 9 8 10 10 8 8 9 7 6 5 6 5 6 6 4 3 5 4 5 5 6 10 11 11
4 4 5 5 6 8 10 10 9 6 6 7 7 7 7 8 7 7 7 7 8 8 8 8 9 9 9 7 7 7 6 6 7 5 5 5 5 5 5 5 9 11 11
4 4 5 5 6 9 10 10 7 4 5 7 7 7 7 8 10 8 7 8 9 8 8 9 10 11 12 11 8 5 5 5 6 5 5 5 4 4 4 5 6 10 11
4 5 6 6 7 8 10 10 7 3 5 6 6 6 9 10 10 9 7 7 9 9 7 7 7 8 9 9 10 9 7 7 6 5 4 5 4 3 4 3 3 4 6
Wind_Direction
135 112 81 56 15 161 168 202 217 211 225 230 215 214 227 226 214 208 230 232 218 213 212 208 204 202 199 197 195 193 192 191 187 183 182 180 177 175 174 173 169 167 166
130 110 88 62 359 266 185 184 212 210 208 210 228 224 227 233 237 229 226 241 235 223 216 214 210 209 206 203 201 199 198 197 192 189 188 186 183 181 181 180 177 174 172
125 119 114 90 354 347 78 92 122 126 188 222 242 247 238 247 248 241 233 232 238 233 224 219 216 213 212 210 207 206 203 202 197 194 194 192 189 186 185 185 183 180 178
123 114 105 83 49 58 70 95 92 125 204 251 252 261 255 252 252 246 237 235 232 235 231 227 222 217 216 217 213 211 209 206 202 199 198 197 195 192 189 189 188 185 184
119 114 105 76 64 70 60 69 71 87 217 272 262 257 265 262 262 256 247 242 236 233 231 232 229 223 221 221 218 216 213 211 208 206 205 203 201 197 195 193 193 190 189
107 106 96 82 77 74 57 54 70 56 35 285 276 280 271 266 264 262 261 255 244 239 235 235 233 232 230 227 223 222 218 215 213 212 211 209 207 203 200 198 197 195 194
100 101 96 85 83 84 70 68 84 57 23 9 32 334 314 296 282 273 283 276 262 250 240 235 235 235 238 234 229 227 224 220 217 215 214 212 210 207 204 202 201 199 198
110 129 121 113 102 89 61 54 73 81 22 32 78 54 343 340 331 321 293 266 279 275 258 246 237 234 238 235 232 232 231 226 223 220 217 214 212 210 207 206 204 202 202
89 113 126 122 114 110 101 70 88 113 82 16 51 124 137 270 307 318 327 344 339 306 281 267 247 242 240 236 236 237 237 231 227 225 223 218 213 211 209 209 208 206 205
57 94 121 129 122 113 108 29 108 123 130 85 348 14 181 178 226 313 319 337 342 333 315 296 275 255 246 244 242 236 237 236 231 229 228 224 219 214 212 212 212 211 208
38 61 88 100 99 94 89 55 75 103 147 171 193 212 70 75 179 222 290 318 328 310 304 294 285 277 262 251 251 248 239 235 233 234 232 227 224 220 216 216 217 217 214
24 41 77 87 95 94 78 70 81 106 173 192 199 196 188 193 203 207 249 281 296 296 301 292 282 280 272 259 258 263 249 240 236 235 236 232 228 225 222 221 222 220 218
18 356 50 59 61 50 26 99 75 308 244 230 229 224 218 222 208 199 223 261 278 293 303 299 285 286 283 269 266 276 266 254 244 240 239 236 232 228 224 224 224 223 221
224 263 312 314 305 312 331 100 272 281 266 261 257 240 235 237 217 208 208 219 272 286 281 280 294 280 295 294 277 274 269 260 251 243 239 238 235 230 224 223 224 223 221
238 244 265 281 292 294 287 229 258 277 277 264 264 256 248 249 231 226 221 212 225 266 277 267 273 291 300 293 286 277 268 265 257 247 240 237 233 228 225 223 223 221 220
247 253 270 278 291 296 283 254 264 266 265 268 256 257 259 257 252 238 227 224 221 236 260 260 258 278 293 298 294 286 278 274 262 251 242 237 235 231 228 226 223 221 219
229 238 251 262 269 271 267 254 260 260 261 272 276 266 268 263 259 254 236 229 227 223 254 271 260 269 275 283 294 290 280 271 266 254 246 239 235 232 229 229 227 224 221
236 239 249 259 265 264 260 253 263 262 257 265 270 269 272 269 260 256 245 243 241 229 238 268 275 270 264 272 279 285 285 277 267 264 250 242 238 235 232 230 228 226 223
240 246 245 254 264 268 263 257 254 260 260 260 261 260 267 266 264 259 253 252 251 249 233 250 268 265 267 272 280 281 281 278 276 270 254 244 240 237 233 230 229 227 224
240 252 252 254 261 265 263 261 257 259 263 265 261 257 259 254 256 260 259 255 252 254 246 248 261 266 265 268 263 273 283 275 279 277 264 254 245 240 238 234 231 228 226
245 249 257 264 266 264 257 255 254 258 261 269 270 263 259 259 255 252 254 253 247 249 252 251 259 264 265 265 260 261 274 284 276 259 266 260 252 246 240 238 236 233 229
254 253 254 260 268 266 271 270 259 256 259 262 269 273 273 270 271 269 266 261 242 240 246 247 252 254 262 259 259 258 266 275 277 248 254 269 249 252 247 237 234 233 229
248 256 259 259 264 270 274 277 271 258 256 258 260 267 274 275 277 275 277 277 264 250 238 238 248 251 255 250 249 258 253 253 258 265 264 272 254 254 249 242 233 231 232
244 253 261 262 266 273 275 277 278 265 259 259 258 258 262 272 272 270 275 277 273 266 253 243 244 250 251 251 242 249 258 262 264 259 240 259 257 255 256 247 236 230 230
247 250 258 262 266 276 278 278 277 262 262 266 264 258 256 265 270 269 267 270 276 276 265 251 245 251 254 252 241 240 242 245 260 258 221 236 252 254 254 249 241 232 232
245 258 265 263 261 269 277 279 271 242 260 269 271 265 256 257 267 268 260 259 266 271 278 283 272 264 259 255 239 229 231 237 248 256 223 217 240 237 257 242 237 234 233